{"data":{"norad_id":66672,"intl_designator":"2025-276G","name":"BRO-17","alt_names":[],"object_type":"PAYLOAD","status":"ACTIVE","operator":null,"country":"FR","launch_date":"2025-11-28","launch_site_code":"AFWTR","launch_vehicle":null,"mission":null,"orbit_class":"UNKNOWN","rcs_meters":null,"size_class":null,"mass_kg":null,"dimensions":null,"purposes":[],"wikipedia_slug":null,"has_3d_model":false,"image_url":null,"decayed_at":null,"tle_current":{"epoch":"2026-09-20T11:37:41.106720Z","epoch_age_seconds":122313,"freshness":"FRESH","line1":"1 66672U 25276G   26263.48450355  .00001884  00000+0  94608-4 0  9993","line2":"2 66672  97.4113 334.7270 0007573  40.6309 319.5489 15.18473924 44858","mean_motion":15.18473924,"eccentricity":0.0007573,"inclination_deg":97.4113,"raan_deg":334.727,"arg_perigee_deg":40.6309,"mean_anomaly_deg":319.5489,"bstar":9.4608e-5,"rev_number":4485,"period_min":94.832053237155,"perigee_km":505.2354073071,"apogee_km":515.66886441228,"semimajor_km":6888.5891358597,"source":"CELESTRAK","updated_at":"2026-09-21T09:00:16.120681Z"}}}